Tracking 18987 objects as of 25-Feb-2018
HD Live streaming from Space Station
objects crossing your sky now

NOAA 16 DEB

Track NOAA 16 DEB now!
10-day predictions


NORAD ID: 41222
Int'l Code: 2000-055EB
Perigee: 857.5 km
Apogee: 948.8 km
Inclination: 98.8 °
Period: 102.9 minutes
Semi major axis: 7274 km
RCS: Unknown
Launch date: September 21, 2000
Source: United States (US)
Launch site: AIR FORCE WESTERN TEST RANGE (AFWTR)

Note: This is SATELLITE DEBRIS
aabbcc
Your satellite tracking list
Your tracking list is empty




NASA's NSSDC Master Catalog

Two Line Element Set (TLE):
1 41222U 00055EB  18055.37730783 +.00000509 +00000-0 +37252-3 0  9994
2 41222 098.8280 108.3520 0062758 184.9626 175.0924 13.99355480112820
Source of the keplerian elements: AFSPC